User: anonymous   Login
Location: Buffign�court
(47.8126°N, 6.0176°E)
Time: 14:57:15
(UTC+00:00)
Language:

Cosmos 1626 - Orbit

View from above orbital plane
View from above orbital plane
View from above satellite
View from above satellite

Ground track
Ground track

The orbit data is extracted from the following two-line orbital elements,

1 15494U 85009A   21259.09331595  .00000851  00000-0  32677-4 0  9992
2 15494  82.4786 133.9204 0003113  43.0457 317.1024 15.25070039  5097
Epoch (UTC): 16 September 2021 02:14:22
Eccentricity: 0.0003113
inclination: 82.4786°
perigee height: 488 km
apogee height: 493 km
right ascension of ascending node: 133.9204°
argument of perigee: 43.0457°
revolutions per day: 15.25070039
mean anomaly at epoch: 317.1024°
orbit number at epoch: 509

The dashed part of the orbit path shows where the satellite is in the earth's shadow,  

DLR